Location: Newark
(45.9456°N, 15.4064°E)
Time: 10:46:04
(UTC+00:00)

S-56A Canister/Altair - Visible Passes

Search period start: 22 January 2020 00:00
Search period end: 01 February 2020 00:00
Orbit: 634 x 2498 km, 38.9° (Epoch: 22 January)

Date Brightness Start Highest point End Pass type
(mag) Time Alt. Az. Time Alt. Az. Time Alt. Az.
22 Jan 10.1 18:20:36 10° SSE 18:20:36 10° SSE 18:20:36 10° SSE visible
24 Jan 10.0 19:14:56 10° SW 19:16:41 16° SSW 19:16:41 16° SSW visible
25 Jan 9.5 18:42:03 10° SSW 18:45:58 22° S 18:45:58 22° S visible
26 Jan 9.2 18:09:06 10° SSW 18:14:46 24° SSE 18:15:15 23° SSE visible
26 Jan 10.6 20:12:38 10° WSW 20:12:41 10° WSW 20:12:41 10° WSW visible
27 Jan 9.4 17:36:07 10° SSW 17:42:06 23° SSE 17:44:29 19° SE visible
27 Jan 9.9 19:39:37 10° WSW 19:41:55 20° SW 19:41:55 20° SW visible
28 Jan 9.7 17:03:07 10° SSW 17:09:24 23° SSE 17:13:43 12° ESE visible
28 Jan 9.2 19:06:31 10° WSW 19:11:09 31° SSW 19:11:09 31° SSW visible
29 Jan 9.9 16:30:05 10° SSW 16:36:39 22° SSE 16:41:41 10° ESE visible
29 Jan 8.7 18:33:21 10° SW 18:40:21 38° S 18:40:21 38° S visible
30 Jan 8.8 18:00:07 10° SW 18:07:41 38° S 18:09:32 32° SE visible
30 Jan 10.1 20:05:03 10° WSW 20:06:58 18° WSW 20:06:58 18° WSW visible
31 Jan 9.2 17:26:50 10° SW 17:34:58 38° SSE 17:38:43 21° ESE visible
31 Jan 9.4 19:31:52 10° WSW 19:36:08 31° SW 19:36:08 31° SW visible
